Погода в Намангане

Узбекистан     41°00′00″N   71°40′21″E
темп.,
°C
ветер,
м/с
пор.,
м/с
влажн.,
%
обл.,
%
осадки,
мм/ч
давл.,
гПа
погр.,
м
26 января, вт
вт2623:00−1св115679 0.0 103121
02:00−1всв115910 0.0 103021
05:00−2св12565 0.0 103121
08:00−2всв11520 0.0 103122
11:00+3в12354 0.0 1030348
14:00+6в12290 0.0 1027582
17:00+5вюв11370 0.0 102822
20:00+2всв22530 0.0 103024
27 января, ср
ср2723:000св23530 0.0 103041
02:00−1всв22470 0.0 103031
05:00−1св22450 0.0 103129
08:00−1всв22430 0.0 103134
11:00+4в23280 0.0 1029397
14:00+7вюв22230 0.0 1027653
17:00+5вюв12310 0.0 102822
20:00+2всв22480 0.0 103033
28 января, чт
чт2823:000всв23450 0.0 103044
02:00−1всв22430 0.0 103032
05:00−1всв22410 0.0 102934
08:00−1всв22380 0.0 103036
11:00+4в23240 0.0 1027385
14:00+7в22190 0.0 1026648
17:00+6вюв12280 0.0 102722
20:00+2св23440 0.0 102936
29 января, пт
пт2923:000всв23420 0.0 102947
02:00−1св23390 0.0 102938
05:00−1всв22370 0.0 102931
08:00−1св22340 0.0 102934
11:00+5в22220 0.0 1027361
14:00+8в12180 0.0 1025605
17:00+6в12260 0.0 102625
20:00+2св23390 0.0 102952
30 января, сб
сб3023:00+1св23360 0.0 102948
02:000всв23350 0.0 103049
05:00−1всв23350 0.0 102934
08:00−1всв23330 0.0 102948
11:00+5в34210 0.0 1026356
14:00+9в33189 0.0 1022597
17:00+6всв233152 0.0 102367
20:00+3всв233793 0.0 102247